sat.trackr.live / text

‹ back to catalog

IRIDIUM 117

NORAD 42808 · 2017-039F

PAYLOAD ACTIVE UNKNOWN

§ Identity

Operator
Country
US
Launch date
2017-06-25
Launch site
AFWTR
Launch vehicle
Mass (kg)
RCS (m²)

Purposes: comms

External: N2YO · Heavens-Above · Gunter

§ Orbital elements

Epoch: 2026-05-25T02:23:30.929856Z

Period
100.40 min
Inclination
86.3983°
Eccentricity
0.0002257
Mean motion
14.34218071 rev/d
Perigee alt
776.1 km
Apogee alt
779.3 km
Semi-major
7,155.8 km
B*
1.6183e-5
RAAN
3.2456°
Arg perigee
83.9218°
Mean anomaly
276.2235°
Rev number
46,666

§ Raw data

IRIDIUM 1171 42808U 17039F   26145.09966354  .00000065  00000+0  16183-4 0  99952 42808  86.3983   3.2456 0002257  83.9218 276.2235 14.34218071466664

JSON: /api/v1/satellites/42808 · /tle

For live sub-satellite position, see the globe view (requires WebGL).

§ Visibility from observer

Set your observer location to see the next 7 days of passes ≥ 10°. The values pass through the URL so the page stays shareable.

No JS? Fill the form by hand. The geolocation button needs JavaScript.